Time,TemperatureF,DewpointF,PressureIn,WindDirection,WindDirectionDegrees,WindSpeedMPH,WindSpeedGustMPH,Humidity,HourlyPrecipIn,Conditions,Clouds,dailyrainin,SolarRadiationWatts/m^2,SoftwareType,DateUTC
2013-01-19 00:07:00,39.7,18.0,30.28,SSW,203,0.0,-999.0,42,-99.99,,,0.00,0,weatherlink.com 1.10,2013-01-19 08:07:00,
2013-01-19 00:22:00,38.0,17.0,30.28,SSW,203,0.0,-999.0,43,-99.99,,,0.00,0,weatherlink.com 1.10,2013-01-19 08:22:00,
2013-01-19 00:37:00,35.5,16.0,30.28,SSW,203,0.0,-999.0,46,-99.99,,,0.00,0,weatherlink.com 1.10,2013-01-19 08:37:00,
2013-01-19 00:52:00,34.2,17.0,30.28,SSW,203,0.0,-999.0,49,-99.99,,,0.00,0,weatherlink.com 1.10,2013-01-19 08:52:00,
2013-01-19 01:07:00,34.6,18.0,30.28,SSW,203,0.0,-999.0,50,-99.99,,,0.00,0,weatherlink.com 1.10,2013-01-19 09:07:00,
2013-01-19 01:22:00,34.5,17.0,30.28,SSW,203,0.0,-999.0,49,-99.99,,,0.00,0,weatherlink.com 1.10,2013-01-19 09:22:00,
2013-01-19 01:37:00,36.3,17.0,30.28,SSW,203,0.0,-999.0,45,-99.99,,,0.00,0,weatherlink.com 1.10,2013-01-19 09:37:00,
2013-01-19 01:52:00,36.4,17.0,30.29,SSW,203,0.0,-999.0,45,-99.99,,,0.00,0,weatherlink.com 1.10,2013-01-19 09:52:00,
2013-01-19 02:07:00,34.6,17.0,30.29,SSW,203,0.0,-999.0,48,-99.99,,,0.00,0,weatherlink.com 1.10,2013-01-19 10:07:00,
2013-01-19 02:22:00,34.5,17.0,30.29,SSW,203,0.0,-999.0,50,-99.99,,,0.00,0,weatherlink.com 1.10,2013-01-19 10:22:00,
2013-01-19 02:37:00,35.7,18.0,30.29,SSW,203,0.0,-999.0,48,-99.99,,,0.00,0,weatherlink.com 1.10,2013-01-19 10:37:00,
2013-01-19 02:52:00,35.8,17.0,30.29,SSW,203,0.0,-999.0,46,-99.99,,,0.00,0,weatherlink.com 1.10,2013-01-19 10:52:00,
2013-01-19 03:07:00,35.7,17.0,30.29,SSW,203,0.0,-999.0,47,-99.99,,,0.00,0,weatherlink.com 1.10,2013-01-19 11:07:00,
2013-01-19 04:52:00,35.1,17.0,30.27,SSW,203,0.0,-999.0,48,-99.99,,,0.00,0,weatherlink.com 1.10,2013-01-19 12:52:00,
2013-01-19 05:07:00,34.9,16.0,30.27,SSW,203,0.0,-999.0,47,-99.99,,,0.00,0,weatherlink.com 1.10,2013-01-19 13:07:00,
2013-01-19 05:22:00,33.9,16.0,30.27,SSW,203,0.0,-999.0,49,-99.99,,,0.00,0,weatherlink.com 1.10,2013-01-19 13:22:00,
2013-01-19 05:37:00,34.8,17.0,30.27,SSW,203,0.0,-999.0,48,-99.99,,,0.00,0,weatherlink.com 1.10,2013-01-19 13:37:00,
2013-01-19 05:52:00,34.6,16.0,30.27,SSW,203,0.0,-999.0,47,-99.99,,,0.00,0,weatherlink.com 1.10,2013-01-19 13:52:00,
2013-01-19 06:07:00,34.9,16.0,30.27,SSW,203,0.0,-999.0,47,-99.99,,,0.00,0,weatherlink.com 1.10,2013-01-19 14:07:00,
2013-01-19 06:37:00,34.9,16.0,30.28,SSW,203,0.0,-999.0,46,-99.99,,,0.00,0,weatherlink.com 1.10,2013-01-19 14:37:00,
2013-01-19 06:52:00,32.7,15.0,30.28,SSW,203,0.0,-999.0,49,-99.99,,,0.00,0,weatherlink.com 1.10,2013-01-19 14:52:00,
2013-01-19 07:07:00,32.1,16.0,30.28,SSW,203,0.0,-999.0,51,-99.99,,,0.00,0,weatherlink.com 1.10,2013-01-19 15:07:00,
2013-01-19 07:22:00,32.3,14.0,30.28,SSW,203,0.0,-999.0,48,-99.99,,,0.00,0,weatherlink.com 1.10,2013-01-19 15:22:00,
2013-01-19 07:37:00,31.4,15.0,30.29,SSW,203,0.0,-999.0,50,-99.99,,,0.00,5,weatherlink.com 1.10,2013-01-19 15:37:00,
2013-01-19 07:52:00,32.3,14.0,30.28,SSW,203,0.0,-999.0,48,-99.99,,,0.00,21,weatherlink.com 1.10,2013-01-19 15:52:00,
2013-01-19 08:07:00,33.6,15.0,30.29,SSW,203,0.0,-999.0,46,-99.99,,,0.00,54,weatherlink.com 1.10,2013-01-19 16:07:00,
2013-01-19 08:22:00,35.9,15.0,30.29,SSW,203,0.0,-999.0,43,-99.99,,,0.00,95,weatherlink.com 1.10,2013-01-19 16:22:00,
2013-01-19 08:37:00,37.0,16.0,30.30,SSW,203,0.0,-999.0,42,-99.99,,,0.00,142,weatherlink.com 1.10,2013-01-19 16:37:00,
2013-01-19 08:52:00,36.4,16.0,30.30,SSW,203,0.0,-999.0,44,-99.99,,,0.00,192,weatherlink.com 1.10,2013-01-19 16:52:00,
2013-01-19 09:07:00,37.1,18.0,30.30,SSW,203,0.0,-999.0,46,-99.99,,,0.00,230,weatherlink.com 1.10,2013-01-19 17:07:00,
2013-01-19 09:37:00,38.4,19.0,30.31,SSW,203,0.0,-999.0,46,-99.99,,,0.00,299,weatherlink.com 1.10,2013-01-19 17:37:00,
2013-01-19 10:07:00,39.3,21.0,30.31,SSW,203,0.0,-999.0,49,-99.99,,,0.00,359,weatherlink.com 1.10,2013-01-19 18:07:00,
2013-01-19 10:22:00,41.2,22.0,30.30,SSW,203,0.0,-999.0,47,-99.99,,,0.00,385,weatherlink.com 1.10,2013-01-19 18:22:00,
2013-01-19 10:37:00,42.3,23.0,30.30,WSW,246,0.0,-999.0,46,-99.99,,,0.00,410,weatherlink.com 1.10,2013-01-19 18:37:00,
2013-01-19 10:52:00,43.1,22.0,30.30,SSE,155,2.0,-999.0,43,-99.99,,,0.00,427,weatherlink.com 1.10,2013-01-19 18:52:00,
2013-01-19 11:07:00,43.9,22.0,30.29,ESE,113,5.0,-999.0,42,-99.99,,,0.00,445,weatherlink.com 1.10,2013-01-19 19:07:00,
2013-01-19 11:23:00,44.5,22.0,30.29,East,97,0.0,-999.0,41,-99.99,,,0.00,457,weatherlink.com 1.10,2013-01-19 19:23:00,
2013-01-19 11:37:00,45.2,22.0,30.28,East,79,0.0,-999.0,40,-99.99,,,0.00,468,weatherlink.com 1.10,2013-01-19 19:37:00,
2013-01-19 11:52:00,46.6,22.0,30.28,East,79,0.0,-999.0,38,-99.99,,,0.00,473,weatherlink.com 1.10,2013-01-19 19:52:00,
2013-01-19 12:22:00,47.6,22.0,30.27,ENE,59,0.0,-999.0,36,-99.99,,,0.00,475,weatherlink.com 1.10,2013-01-19 20:22:00,
2013-01-19 12:37:00,48.8,22.0,30.27,ENE,61,2.0,-999.0,35,-99.99,,,0.00,468,weatherlink.com 1.10,2013-01-19 20:37:00,
2013-01-19 12:52:00,49.5,21.0,30.26,NNE,17,6.0,-999.0,33,-99.99,,,0.00,461,weatherlink.com 1.10,2013-01-19 20:52:00,
2013-01-19 13:07:00,50.8,22.0,30.25,NNE,27,3.0,-999.0,32,-99.99,,,0.00,448,weatherlink.com 1.10,2013-01-19 21:07:00,
2013-01-19 13:22:00,52.3,22.0,30.25,NE,51,0.0,-999.0,30,-99.99,,,0.00,434,weatherlink.com 1.10,2013-01-19 21:22:00,
2013-01-19 13:37:00,53.5,22.0,30.25,ENE,57,1.0,-999.0,29,-99.99,,,0.00,417,weatherlink.com 1.10,2013-01-19 21:37:00,
2013-01-19 13:52:00,54.5,21.0,30.24,East,79,3.0,-999.0,27,-99.99,,,0.00,394,weatherlink.com 1.10,2013-01-19 21:52:00,
2013-01-19 14:07:00,55.1,22.0,30.24,ENE,71,3.0,-999.0,28,-99.99,,,0.00,369,weatherlink.com 1.10,2013-01-19 22:07:00,
2013-01-19 14:37:00,54.2,24.0,30.23,NE,36,6.0,-999.0,31,-99.99,,,0.00,308,weatherlink.com 1.10,2013-01-19 22:37:00,
2013-01-19 14:53:00,54.1,24.0,30.23,NE,40,2.0,-999.0,31,-99.99,,,0.00,269,weatherlink.com 1.10,2013-01-19 22:53:00,
2013-01-19 15:23:00,54.5,24.0,30.23,NE,38,0.0,-999.0,31,-99.99,,,0.00,174,weatherlink.com 1.10,2013-01-19 23:23:00,
2013-01-19 15:37:00,54.4,23.0,30.23,NE,38,0.0,-999.0,30,-99.99,,,0.00,128,weatherlink.com 1.10,2013-01-19 23:37:00,
2013-01-19 15:52:00,53.6,23.0,30.23,NE,38,1.0,-999.0,30,-99.99,,,0.00,86,weatherlink.com 1.10,2013-01-19 23:52:00,
2013-01-19 16:07:00,53.2,22.0,30.23,NE,38,0.0,-999.0,30,-99.99,,,0.00,49,weatherlink.com 1.10,2013-01-20 00:07:00,
2013-01-19 16:22:00,53.1,22.0,30.24,NE,38,0.0,-999.0,30,-99.99,,,0.00,19,weatherlink.com 1.10,2013-01-20 00:22:00,
2013-01-19 16:37:00,52.6,23.0,30.24,NE,38,0.0,-999.0,31,-99.99,,,0.00,12,weatherlink.com 1.10,2013-01-20 00:37:00,
2013-01-19 16:53:00,51.2,22.0,30.23,NE,38,0.0,-999.0,32,-99.99,,,0.00,7,weatherlink.com 1.10,2013-01-20 00:53:00,
2013-01-19 17:07:00,49.7,22.0,30.24,NE,38,0.0,-999.0,34,-99.99,,,0.00,0,weatherlink.com 1.10,2013-01-20 01:07:00,
2013-01-19 17:23:00,49.0,22.0,30.24,NE,38,0.0,-999.0,35,-99.99,,,0.00,0,weatherlink.com 1.10,2013-01-20 01:23:00,
2013-01-19 17:37:00,48.2,22.0,30.24,NE,38,0.0,-999.0,36,-99.99,,,0.00,0,weatherlink.com 1.10,2013-01-20 01:37:00,
2013-01-19 17:52:00,46.7,23.0,30.24,NE,38,0.0,-999.0,39,-99.99,,,0.00,0,weatherlink.com 1.10,2013-01-20 01:52:00,
2013-01-19 18:07:00,46.3,22.0,30.24,NE,38,0.0,-999.0,39,-99.99,,,0.00,0,weatherlink.com 1.10,2013-01-20 02:07:00,
2013-01-19 18:22:00,45.8,23.0,30.24,NE,38,0.0,-999.0,40,-99.99,,,0.00,0,weatherlink.com 1.10,2013-01-20 02:22:00,
2013-01-19 18:37:00,45.8,23.0,30.24,NE,38,0.0,-999.0,40,-99.99,,,0.00,0,weatherlink.com 1.10,2013-01-20 02:37:00,
2013-01-19 19:07:00,42.9,22.0,30.25,NE,38,2.0,-999.0,44,-99.99,,,0.00,0,weatherlink.com 1.10,2013-01-20 03:07:00,
2013-01-19 19:22:00,41.8,22.0,30.25,NE,38,0.0,-999.0,46,-99.99,,,0.00,0,weatherlink.com 1.10,2013-01-20 03:22:00,
2013-01-19 19:37:00,41.7,21.0,30.26,NNW,332,4.0,-999.0,44,-99.99,,,0.00,0,weatherlink.com 1.10,2013-01-20 03:37:00,
2013-01-19 19:53:00,40.0,21.0,30.26,NNW,330,4.0,-999.0,47,-99.99,,,0.00,0,weatherlink.com 1.10,2013-01-20 03:53:00,
2013-01-19 20:07:00,38.3,21.0,30.27,NNW,330,3.0,-999.0,50,-99.99,,,0.00,0,weatherlink.com 1.10,2013-01-20 04:07:00,
2013-01-19 20:23:00,37.7,21.0,30.27,NNW,330,4.0,-999.0,51,-99.99,,,0.00,0,weatherlink.com 1.10,2013-01-20 04:23:00,
2013-01-19 20:37:00,37.5,21.0,30.27,NNW,329,3.0,-999.0,52,-99.99,,,0.00,0,weatherlink.com 1.10,2013-01-20 04:37:00,
2013-01-19 20:52:00,36.6,21.0,30.28,WNW,302,5.0,-999.0,53,-99.99,,,0.00,0,weatherlink.com 1.10,2013-01-20 04:52:00,
2013-01-19 21:07:00,35.4,20.0,30.28,West,261,5.0,-999.0,54,-99.99,,,0.00,0,weatherlink.com 1.10,2013-01-20 05:07:00,
2013-01-19 21:22:00,36.4,21.0,30.28,West,261,5.0,-999.0,53,-99.99,,,0.00,0,weatherlink.com 1.10,2013-01-20 05:22:00,
2013-01-19 21:37:00,36.9,21.0,30.29,West,270,3.0,-999.0,52,-99.99,,,0.00,0,weatherlink.com 1.10,2013-01-20 05:37:00,
2013-01-19 21:52:00,36.2,20.0,30.28,West,281,3.0,-999.0,53,-99.99,,,0.00,0,weatherlink.com 1.10,2013-01-20 05:52:00,
2013-01-19 22:07:00,36.6,20.0,30.29,West,281,0.0,-999.0,51,-99.99,,,0.00,0,weatherlink.com 1.10,2013-01-20 06:07:00,
2013-01-19 22:37:00,35.7,19.0,30.29,WSW,241,2.0,-999.0,52,-99.99,,,0.00,0,weatherlink.com 1.10,2013-01-20 06:37:00,
2013-01-19 22:52:00,37.3,20.0,30.30,WSW,244,4.0,-999.0,50,-99.99,,,0.00,0,weatherlink.com 1.10,2013-01-20 06:52:00,
2013-01-19 23:07:00,36.7,20.0,30.30,WSW,244,1.0,-999.0,51,-99.99,,,0.00,0,weatherlink.com 1.10,2013-01-20 07:07:00,
2013-01-19 23:37:00,36.2,19.0,30.30,WSW,243,3.0,-999.0,51,-99.99,,,0.00,0,weatherlink.com 1.10,2013-01-20 07:37:00,
2013-01-19 23:52:00,34.8,19.0,30.30,WSW,240,4.0,-999.0,52,-99.99,,,0.00,0,weatherlink.com 1.10,2013-01-20 07:52:00,